If you wish to contribute or participate in the discussions about articles you are invited to join SKYbrary as a registered user

 Actions

Tabas Airport

From SKYbrary Wiki

OIMT
Airport
ICAO: OIMT – IATA: TCX
Summary
Name Tabas Airport
Region Asia and Pacific
Territory Iran IR.gif
Location Tabas, South Khorasan
Serving Tabas
Elevation 704.698 m
2,312 ft704.698 m
Coordinates 33° 40' 9.32" N, 56° 53' 49.42" E
Runways
Designator Length Width Surface ROPS
15/33 3041 m9,977.034 ft
45 m147.638 ft
ASP /


METAR
Observation OIMT 050400Z AUTO 30006KT //// // ////// 32/08 Q1004
Station Tabas
Date/Time 05 August 2020 04:00:00
Wind direction 300°
Wind speed 06 kts
Lowest cloud amount n/a
Temperature 32°C
Dew point 8°C
Humidity 22%
QNH 1004 hPa
Weather condition n/a

Airport serving Tabas,[3] a city in the South Khorasan Province of central Iran.

Climatology

Cold semi-arid climate (Köppen climate classification BSk)

Maps

Terrain

Loading map...

Airport Layout

Loading map...


Accidents & Serious Incidents at or in vicinity of OIMT

None on SKYbrary